QPF
0.06 0.05 0.06 0.05 0.05 0.06 0.06 0.05 0.05 0.04 0.05 0.05 0.04 0.03 0.04 0.05 0.05 0.07 0.09 0.07 0.07 0.08 0.10 0.10 0.08 0.09 0.09 0.07 0.06 0.05 0.05 0.06 0.06 0.06 0.07 0.07 0.06 0.07 0.08 0.09 0.10 0.07 0.04
0.04 0.03 0.03 0.02 0.03 0.04 0.04 0.05 0.04 0.04 0.03 0.04 0.05 0.04 0.05 0.07 0.06 0.07 0.08 0.08 0.08 0.08 0.09 0.07 0.06 0.06 0.07 0.05 0.04 0.05 0.04 0.04 0.07 0.08 0.08 0.06 0.08 0.09 0.10 0.11 0.11 0.09 0.06
0.02 0.02 0.02 0.02 0.02 0.03 0.03 0.04 0.04 0.03 0.04 0.04 0.04 0.05 0.06 0.07 0.06 0.06 0.07 0.08 0.10 0.10 0.09 0.06 0.06 0.05 0.05 0.04 0.05 0.07 0.05 0.07 0.09 0.13 0.15 0.08 0.07 0.10 0.12 0.11 0.07 0.06 0.06
0.01 0.02 0.01 0.01 0.02 0.02 0.03 0.04 0.03 0.02 0.03 0.03 0.04 0.04 0.05 0.06 0.08 0.07 0.05 0.05 0.07 0.07 0.06 0.06 0.05 0.04 0.03 0.03 0.04 0.06 0.06 0.09 0.13 0.18 0.16 0.11 0.10 0.10 0.10 0.07 0.04 0.04 0.05
0.00 0.00 0.01 0.01 0.02 0.02 0.02 0.03 0.03 0.03 0.03 0.04 0.04 0.05 0.07 0.06 0.08 0.09 0.08 0.05 0.04 0.05 0.06 0.06 0.04 0.04 0.03 0.03 0.03 0.04 0.05 0.09 0.13 0.15 0.11 0.11 0.11 0.10 0.06 0.05 0.05 0.04 0.04
0.01 0.01 0.00 0.01 0.02 0.02 0.02 0.02 0.03 0.04 0.04 0.05 0.05 0.06 0.06 0.05 0.06 0.07 0.07 0.06 0.05 0.05 0.05 0.05 0.04 0.05 0.05 0.04 0.03 0.04 0.05 0.07 0.11 0.06 0.07 0.08 0.08 0.09 0.06 0.07 0.06 0.04 0.04
0.01 0.01 0.00 0.01 0.01 0.01 0.01 0.01 0.02 0.04 0.04 0.06 0.06 0.07 0.06 0.05 0.06 0.05 0.06 0.07 0.07 0.06 0.06 0.05 0.05 0.05 0.04 0.03 0.04 0.05 0.04 0.05 0.07 0.04 0.06 0.09 0.08 0.07 0.07 0.07 0.05 0.03 0.03
0.01 0.01 0.00 0.00 0.01 0.01 0.01 0.01 0.02 0.03 0.04 0.05 0.05 0.05 0.05 0.05 0.04 0.04 0.05 0.07 0.07 0.06 0.04 0.04 0.06 0.04 0.03 0.04 0.04 0.04 0.03 0.04 0.02 0.02 0.04 0.06 0.04 0.06 0.07 0.08 0.05 0.02 0.02
0.02 0.01 0.01 0.01 0.01 0.01 0.01 0.01 0.03 0.03 0.03 0.03 0.03 0.03 0.02 0.03 0.04 0.03 0.04 0.05 0.04 0.04 0.02 0.02 0.02 0.02 0.02 0.02 0.04 0.04 0.04 0.03 0.03 0.02 0.03 0.05 0.07 0.08 0.08 0.06 0.03 0.03 0.04
0.03 0.02 0.02 0.01 0.02 0.02 0.02 0.01 0.01 0.02 0.02 0.02 0.03 0.02 0.02 0.04 0.03 0.03 0.04 0.06 0.07 0.06 0.03 0.02 0.02 0.02 0.02 0.02 0.02 0.04 0.05 0.05 0.03 0.03 0.03 0.04 0.07 0.08 0.05 0.03 0.03 0.04 0.04
0.03 0.02 0.02 0.02 0.02 0.04 0.04 0.01 0.02 0.02 0.03 0.05 0.05 0.05 0.10 0.16 0.08 0.06 0.04 0.05 0.06 0.06 0.04 0.03 0.03 0.03 0.03 0.01 0.01 0.02 0.04 0.03 0.03 0.02 0.03 0.02 0.04 0.06 0.05 0.05 0.04 0.03 0.02
0.03 0.02 0.03 0.02 0.02 0.05 0.06 0.04 0.08 0.07 0.06 0.10 0.09 0.09 0.13 0.15 0.14 0.07 0.04 0.04 0.05 0.05 0.04 0.04 0.04 0.04 0.04 0.04 0.02 0.03 0.04 0.02 0.01 0.01 0.02 0.02 0.02 0.03 0.05 0.05 0.03 0.03 0.02
0.03 0.02 0.02 0.03 0.04 0.05 0.07 0.06 0.06 0.08 0.07 0.08 0.10 0.09 0.11 0.08 0.07 0.06 0.06 0.06 0.05 0.06 0.06 0.05 0.08 0.07 0.06 0.06 0.05 0.03 0.03 0.02 0.01 0.01 0.02 0.02 0.01 0.01 0.02 0.02 0.02 0.03 0.02
0.04 0.02 0.01 0.02 0.03 0.06 0.07 0.07 0.04 0.05 0.05 0.05 0.07 0.05 0.06 0.08 0.07 0.07 0.09 0.10 0.11 0.10 0.10 0.08 0.09 0.07 0.05 0.03 0.02 0.03 0.03 0.04 0.01 0.01 0.02 0.01 0.01 0.01 0.02 0.01 0.01 0.02 0.03
0.06 0.04 0.02 0.02 0.03 0.05 0.05 0.06 0.03 0.03 0.03 0.04 0.05 0.04 0.04 0.06 0.06 0.07 0.07 0.09 0.11 0.06 0.04 0.06 0.05 0.05 0.05 0.02 0.03 0.02 0.02 0.02 0.01 0.01 0.01 0.01 0.01 0.01 0.01 0.02 0.02 0.03 0.02
0.07 0.04 0.02 0.02 0.04 0.06 0.07 0.07 0.04 0.02 0.03 0.04 0.05 0.05 0.05 0.07 0.08 0.09 0.06 0.06 0.06 0.03 0.03 0.03 0.04 0.05 0.05 0.03 0.03 0.02 0.01 0.01 0.02 0.02 0.02 0.02 0.01 0.00 0.01 0.01 0.01 0.02 0.02
0.06 0.04 0.02 0.03 0.04 0.07 0.09 0.08 0.06 0.04 0.03 0.04 0.04 0.04 0.05 0.06 0.08 0.10 0.09 0.06 0.04 0.03 0.04 0.03 0.03 0.04 0.06 0.04 0.04 0.02 0.01 0.02 0.01 0.02 0.02 0.02 0.01 0.01 0.00 0.01 0.01 0.01 0.01
0.05 0.04 0.02 0.02 0.04 0.07 0.10 0.11 0.10 0.07 0.06 0.06 0.05 0.04 0.04 0.06 0.06 0.09 0.08 0.06 0.05 0.04 0.03 0.04 0.05 0.05 0.07 0.06 0.07 0.04 0.03 0.02 0.02 0.01 0.02 0.02 0.03 0.02 0.01 0.00 0.00 0.01 0.02
0.05 0.03 0.04 0.05 0.07 0.06 0.08 0.10 0.10 0.08 0.08 0.06 0.05 0.05 0.04 0.04 0.05 0.07 0.08 0.09 0.06 0.06 0.04 0.04 0.07 0.08 0.09 0.08 0.04 0.04 0.02 0.02 0.02 0.01 0.01 0.02 0.03 0.03 0.01 0.02 0.00 0.01 0.02
0.04 0.04 0.05 0.05 0.07 0.08 0.08 0.08 0.10 0.11 0.08 0.06 0.06 0.07 0.07 0.06 0.05 0.07 0.08 0.07 0.05 0.07 0.08 0.08 0.09 0.09 0.10 0.09 0.06 0.05 0.02 0.02 0.02 0.02 0.02 0.01 0.01 0.01 0.01 0.02 0.03 0.02 0.02
0.03 0.04 0.04 0.04 0.07 0.10 0.11 0.10 0.11 0.11 0.10 0.08 0.07 0.08 0.08 0.07 0.08 0.09 0.08 0.09 0.06 0.08 0.08 0.07 0.09 0.10 0.09 0.08 0.09 0.08 0.05 0.02 0.03 0.03 0.02 0.02 0.02 0.02 0.02 0.04 0.05 0.06 0.04
0.02 0.03 0.04 0.05 0.06 0.08 0.10 0.12 0.11 0.09 0.07 0.08 0.09 0.11 0.09 0.06 0.07 0.07 0.10 0.08 0.07 0.09 0.08 0.08 0.11 0.12 0.10 0.08 0.12 0.15 0.14 0.12 0.08 0.04 0.03 0.04 0.04 0.05 0.04 0.05 0.07 0.11 0.11
0.03 0.03 0.04 0.06 0.06 0.07 0.09 0.10 0.09 0.09 0.07 0.10 0.11 0.10 0.08 0.06 0.04 0.05 0.06 0.07 0.08 0.06 0.10 0.10 0.12 0.15 0.16 0.11 0.09 0.15 0.18 0.19 0.16 0.10 0.07 0.06 0.06 0.07 0.07 0.08 0.07 0.10 0.12
0.04 0.03 0.03 0.05 0.05 0.06 0.08 0.07 0.08 0.09 0.09 0.09 0.09 0.10 0.10 0.08 0.06 0.05 0.04 0.06 0.07 0.06 0.11 0.07 0.11 0.13 0.17 0.14 0.12 0.10 0.13 0.15 0.17 0.16 0.13 0.11 0.13 0.13 0.09 0.08 0.06 0.09 0.10
0.04 0.04 0.04 0.05 0.05 0.06 0.07 0.06 0.08 0.09 0.10 0.09 0.07 0.09 0.10 0.11 0.09 0.06 0.07 0.10 0.10 0.09 0.09 0.09 0.12 0.10 0.11 0.11 0.13 0.12 0.16 0.17 0.15 0.15 0.17 0.17 0.14 0.10 0.07 0.08 0.06 0.06 0.10
0.03 0.06 0.06 0.05 0.05 0.06 0.07 0.06 0.07 0.08 0.09 0.10 0.10 0.10 0.09 0.10 0.10 0.10 0.11 0.14 0.13 0.11 0.09 0.10 0.11 0.11 0.13 0.15 0.14 0.11 0.12 0.13 0.14 0.15 0.14 0.15 0.14 0.11 0.09 0.09 0.08 0.09 0.10
MSLP
1010.73 1010.84 1011.10 1011.49 1011.95 1012.40 1012.78 1013.04 1013.18 1013.21 1013.18 1013.14 1013.14 1013.19 1013.31 1013.47 1013.65 1013.82 1013.97 1014.10 1014.21 1014.32 1014.45 1014.59 1014.74 1014.88 1015.01 1015.10 1015.18 1015.24 1015.31 1015.41 1015.56 1015.75 1015.97 1016.20 1016.42 1016.61 1016.77 1016.91 1017.04 1017.19 1017.36
1010.54 1010.83 1011.28 1011.83 1012.40 1012.92 1013.33 1013.56 1013.64 1013.59 1013.47 1013.35 1013.29 1013.32 1013.44 1013.62 1013.83 1014.04 1014.22 1014.38 1014.51 1014.63 1014.77 1014.92 1015.08 1015.24 1015.38 1015.49 1015.58 1015.65 1015.71 1015.81 1015.93 1016.11 1016.31 1016.53 1016.75 1016.94 1017.11 1017.25 1017.38 1017.51 1017.66
1010.47 1010.92 1011.51 1012.17 1012.82 1013.39 1013.79 1013.99 1014.01 1013.90 1013.71 1013.54 1013.44 1013.44 1013.55 1013.73 1013.95 1014.17 1014.37 1014.53 1014.67 1014.81 1014.96 1015.14 1015.33 1015.52 1015.69 1015.83 1015.92 1016.00 1016.06 1016.14 1016.26 1016.42 1016.62 1016.85 1017.07 1017.27 1017.45 1017.60 1017.73 1017.85 1017.99
1010.48 1011.04 1011.71 1012.43 1013.13 1013.70 1014.09 1014.28 1014.26 1014.11 1013.90 1013.70 1013.59 1013.58 1013.67 1013.84 1014.05 1014.25 1014.44 1014.59 1014.73 1014.89 1015.06 1015.27 1015.50 1015.73 1015.93 1016.09 1016.20 1016.28 1016.34 1016.41 1016.52 1016.68 1016.89 1017.13 1017.38 1017.61 1017.81 1017.97 1018.11 1018.23 1018.35
1010.51 1011.11 1011.81 1012.56 1013.25 1013.82 1014.21 1014.38 1014.38 1014.24 1014.04 1013.86 1013.76 1013.76 1013.85 1014.00 1014.18 1014.34 1014.49 1014.62 1014.75 1014.91 1015.11 1015.36 1015.63 1015.90 1016.14 1016.31 1016.42 1016.49 1016.53 1016.59 1016.70 1016.87 1017.11 1017.38 1017.67 1017.94 1018.17 1018.36 1018.50 1018.62 1018.74
1010.53 1011.12 1011.81 1012.53 1013.21 1013.76 1014.15 1014.34 1014.37 1014.29 1014.16 1014.04 1013.99 1014.02 1014.11 1014.24 1014.37 1014.49 1014.59 1014.68 1014.80 1014.96 1015.19 1015.47 1015.78 1016.07 1016.32 1016.50 1016.60 1016.64 1016.66 1016.70 1016.80 1017.00 1017.26 1017.58 1017.92 1018.24 1018.51 1018.72 1018.87 1019.00 1019.11
1010.52 1011.08 1011.73 1012.41 1013.05 1013.59 1013.97 1014.21 1014.30 1014.30 1014.27 1014.25 1014.27 1014.35 1014.45 1014.56 1014.65 1014.72 1014.76 1014.82 1014.92 1015.09 1015.33 1015.63 1015.97 1016.28 1016.52 1016.67 1016.74 1016.74 1016.72 1016.74 1016.85 1017.06 1017.37 1017.74 1018.14 1018.50 1018.81 1019.04 1019.20 1019.31 1019.41
1010.54 1011.05 1011.64 1012.27 1012.87 1013.39 1013.78 1014.06 1014.22 1014.32 1014.39 1014.47 1014.59 1014.72 1014.84 1014.94 1015.00 1015.02 1015.03 1015.05 1015.13 1015.30 1015.55 1015.87 1016.21 1016.51 1016.73 1016.84 1016.85 1016.80 1016.75 1016.75 1016.85 1017.08 1017.43 1017.86 1018.31 1018.72 1019.05 1019.29 1019.44 1019.53 1019.61
1010.63 1011.11 1011.65 1012.23 1012.78 1013.27 1013.66 1013.96 1014.18 1014.35 1014.52 1014.70 1014.88 1015.07 1015.22 1015.32 1015.37 1015.36 1015.33 1015.34 1015.41 1015.57 1015.83 1016.15 1016.48 1016.76 1016.94 1017.00 1016.95 1016.85 1016.75 1016.73 1016.83 1017.09 1017.48 1017.95 1018.44 1018.89 1019.23 1019.46 1019.59 1019.65 1019.69
1010.86 1011.31 1011.83 1012.35 1012.86 1013.30 1013.67 1013.96 1014.20 1014.42 1014.64 1014.87 1015.12 1015.34 1015.52 1015.63 1015.67 1015.65 1015.62 1015.62 1015.69 1015.85 1016.11 1016.42 1016.73 1016.97 1017.10 1017.11 1017.01 1016.87 1016.74 1016.70 1016.81 1017.09 1017.52 1018.03 1018.55 1019.01 1019.36 1019.58 1019.67 1019.69 1019.68
1011.24 1011.69 1012.18 1012.67 1013.12 1013.50 1013.81 1014.06 1014.27 1014.49 1014.72 1014.98 1015.25 1015.50 1015.69 1015.82 1015.87 1015.86 1015.83 1015.83 1015.91 1016.08 1016.33 1016.62 1016.90 1017.11 1017.20 1017.17 1017.03 1016.85 1016.71 1016.67 1016.80 1017.10 1017.55 1018.09 1018.63 1019.10 1019.44 1019.64 1019.70 1019.67 1019.62
1011.74 1012.21 1012.69 1013.14 1013.52 1013.82 1014.05 1014.23 1014.39 1014.55 1014.76 1015.00 1015.27 1015.52 1015.73 1015.87 1015.93 1015.94 1015.93 1015.95 1016.04 1016.21 1016.45 1016.72 1016.97 1017.15 1017.20 1017.14 1016.99 1016.80 1016.66 1016.64 1016.78 1017.10 1017.57 1018.11 1018.66 1019.14 1019.48 1019.66 1019.70 1019.64 1019.56
1012.29 1012.78 1013.25 1013.66 1013.99 1014.21 1014.35 1014.44 1014.51 1014.61 1014.75 1014.96 1015.20 1015.44 1015.65 1015.80 1015.89 1015.92 1015.94 1015.98 1016.07 1016.24 1016.46 1016.71 1016.93 1017.08 1017.12 1017.05 1016.90 1016.72 1016.60 1016.59 1016.74 1017.07 1017.54 1018.08 1018.62 1019.09 1019.43 1019.62 1019.66 1019.61 1019.52
1012.78 1013.30 1013.77 1014.15 1014.42 1014.58 1014.64 1014.64 1014.63 1014.65 1014.73 1014.88 1015.09 1015.31 1015.52 1015.68 1015.79 1015.85 1015.89 1015.94 1016.04 1016.19 1016.39 1016.61 1016.81 1016.94 1016.97 1016.91 1016.77 1016.63 1016.52 1016.53 1016.68 1016.99 1017.43 1017.95 1018.47 1018.93 1019.28 1019.49 1019.58 1019.56 1019.50
1013.13 1013.67 1014.14 1014.50 1014.74 1014.84 1014.85 1014.79 1014.73 1014.69 1014.72 1014.83 1015.00 1015.20 1015.40 1015.56 1015.69 1015.77 1015.83 1015.89 1015.99 1016.13 1016.31 1016.50 1016.67 1016.78 1016.82 1016.77 1016.66 1016.54 1016.45 1016.46 1016.59 1016.86 1017.24 1017.70 1018.18 1018.62 1018.98 1019.24 1019.38 1019.45 1019.46
1013.28 1013.82 1014.29 1014.65 1014.87 1014.97 1014.96 1014.89 1014.81 1014.75 1014.76 1014.84 1014.98 1015.16 1015.34 1015.51 1015.64 1015.74 1015.81 1015.89 1015.98 1016.10 1016.26 1016.42 1016.57 1016.67 1016.71 1016.68 1016.59 1016.49 1016.41 1016.39 1016.47 1016.67 1016.96 1017.34 1017.75 1018.15 1018.51 1018.81 1019.04 1019.20 1019.32
1013.23 1013.77 1014.23 1014.59 1014.83 1014.95 1014.97 1014.94 1014.88 1014.84 1014.85 1014.92 1015.04 1015.20 1015.37 1015.53 1015.66 1015.77 1015.85 1015.93 1016.03 1016.14 1016.28 1016.42 1016.55 1016.65 1016.69 1016.67 1016.61 1016.51 1016.41 1016.36 1016.36 1016.46 1016.64 1016.89 1017.20 1017.54 1017.89 1018.22 1018.52 1018.79 1019.02
1013.04 1013.56 1014.01 1014.37 1014.64 1014.82 1014.91 1014.94 1014.95 1014.96 1014.99 1015.06 1015.17 1015.30 1015.45 1015.59 1015.72 1015.83 1015.92 1016.02 1016.12 1016.24 1016.37 1016.50 1016.63 1016.72 1016.77 1016.76 1016.71 1016.61 1016.49 1016.38 1016.30 1016.28 1016.32 1016.43 1016.61 1016.86 1017.15 1017.48 1017.84 1018.19 1018.52
1012.80 1013.27 1013.70 1014.08 1014.39 1014.63 1014.80 1014.92 1015.01 1015.08 1015.14 1015.22 1015.31 1015.42 1015.53 1015.64 1015.75 1015.87 1015.98 1016.09 1016.22 1016.36 1016.50 1016.64 1016.77 1016.86 1016.92 1016.93 1016.88 1016.78 1016.64 1016.48 1016.31 1016.17 1016.06 1016.02 1016.06 1016.18 1016.39 1016.68 1017.03 1017.42 1017.81
1012.60 1013.02 1013.42 1013.80 1014.14 1014.44 1014.69 1014.90 1015.07 1015.19 1015.29 1015.36 1015.42 1015.48 1015.55 1015.63 1015.72 1015.83 1015.96 1016.11 1016.27 1016.44 1016.61 1016.77 1016.91 1017.03 1017.09 1017.11 1017.08 1016.98 1016.83 1016.63 1016.40 1016.16 1015.93 1015.75 1015.63 1015.61 1015.70 1015.90 1016.19 1016.56 1016.96
1012.51 1012.88 1013.24 1013.60 1013.95 1014.30 1014.61 1014.89 1015.12 1015.29 1015.40 1015.45 1015.47 1015.48 1015.49 1015.52 1015.59 1015.70 1015.85 1016.03 1016.24 1016.45 1016.66 1016.85 1017.01 1017.13 1017.22 1017.25 1017.24 1017.16 1017.02 1016.82 1016.56 1016.25 1015.93 1015.63 1015.38 1015.22 1015.16 1015.23 1015.41 1015.70 1016.04
1012.60 1012.91 1013.22 1013.54 1013.88 1014.24 1014.59 1014.91 1015.17 1015.36 1015.46 1015.49 1015.46 1015.40 1015.34 1015.32 1015.36 1015.46 1015.63 1015.85 1016.10 1016.35 1016.59 1016.81 1016.99 1017.12 1017.22 1017.28 1017.29 1017.25 1017.15 1016.97 1016.73 1016.41 1016.05 1015.67 1015.32 1015.02 1014.81 1014.72 1014.76 1014.92 1015.16
1012.85 1013.10 1013.35 1013.62 1013.93 1014.28 1014.63 1014.96 1015.23 1015.42 1015.51 1015.49 1015.41 1015.28 1015.16 1015.09 1015.08 1015.17 1015.35 1015.59 1015.86 1016.15 1016.41 1016.64 1016.82 1016.96 1017.07 1017.14 1017.19 1017.19 1017.15 1017.03 1016.84 1016.57 1016.22 1015.82 1015.40 1015.00 1014.66 1014.42 1014.29 1014.29 1014.39
1013.22 1013.42 1013.61 1013.82 1014.08 1014.38 1014.71 1015.03 1015.30 1015.48 1015.55 1015.50 1015.37 1015.18 1015.00 1014.88 1014.83 1014.89 1015.06 1015.29 1015.58 1015.86 1016.13 1016.35 1016.52 1016.65 1016.75 1016.83 1016.91 1016.96 1016.99 1016.96 1016.85 1016.66 1016.36 1015.98 1015.54 1015.08 1014.65 1014.28 1014.01 1013.85 1013.80
1013.64 1013.79 1013.92 1014.06 1014.26 1014.52 1014.82 1015.12 1015.38 1015.55 1015.60 1015.54 1015.37 1015.15 1014.93 1014.75 1014.67 1014.69 1014.82 1015.04 1015.29 1015.56 1015.80 1015.99 1016.13 1016.23 1016.31 1016.39 1016.48 1016.57 1016.67 1016.72 1016.72 1016.61 1016.40 1016.08 1015.66 1015.19 1014.70 1014.24 1013.86 1013.58 1013.42
1014.03 1014.14 1014.21 1014.29 1014.43 1014.64 1014.90 1015.18 1015.43 1015.61 1015.67 1015.60 1015.44 1015.20 1014.95 1014.74 1014.61 1014.59 1014.68 1014.84 1015.06 1015.27 1015.46 1015.61 1015.70 1015.76 1015.81 1015.87 1015.96 1016.09 1016.23 1016.35 1016.43 1016.42 1016.30 1016.05 1015.68 1015.23 1014.74 1014.25 1013.81 1013.46 1013.23
Thickness
5788 5784 5780 5779 5777 5776 5775 5774 5773 5772 5771 5770 5768 5767 5766 5766 5765 5764 5763 5762 5761 5760 5760 5759 5759 5758 5758 5757 5756 5756 5755 5754 5753 5752 5751 5750 5749 5748 5747 5746 5745 5743 5742
5791 5784 5779 5778 5776 5775 5774 5773 5771 5770 5769 5768 5767 5766 5765 5764 5763 5762 5761 5760 5759 5758 5757 5757 5757 5756 5756 5755 5754 5754 5753 5752 5752 5750 5749 5748 5746 5746 5745 5744 5743 5741 5740
5792 5784 5779 5777 5775 5774 5773 5771 5770 5769 5767 5766 5765 5764 5763 5762 5761 5760 5759 5758 5757 5756 5756 5755 5754 5754 5753 5753 5752 5752 5752 5751 5750 5749 5748 5746 5744 5743 5743 5742 5741 5740 5739
5794 5786 5780 5776 5774 5773 5771 5770 5769 5767 5766 5765 5764 5763 5761 5760 5760 5759 5758 5756 5756 5755 5754 5753 5753 5752 5752 5751 5751 5751 5750 5749 5749 5749 5748 5746 5744 5742 5741 5740 5739 5738 5737
5794 5785 5778 5775 5773 5771 5770 5768 5767 5766 5765 5763 5762 5761 5760 5759 5758 5758 5756 5755 5754 5753 5753 5752 5751 5751 5750 5750 5750 5750 5749 5749 5749 5748 5747 5745 5742 5741 5740 5739 5738 5737 5736
5793 5784 5777 5774 5772 5770 5768 5767 5766 5765 5763 5762 5761 5760 5759 5758 5757 5756 5755 5754 5753 5753 5752 5751 5750 5749 5749 5749 5749 5749 5749 5749 5749 5748 5746 5743 5741 5740 5739 5738 5737 5736 5735
5794 5785 5777 5773 5771 5769 5767 5766 5764 5763 5762 5761 5760 5759 5758 5757 5756 5755 5753 5753 5752 5751 5750 5750 5749 5748 5748 5748 5748 5748 5748 5748 5749 5748 5745 5742 5740 5739 5738 5737 5736 5735 5733
5796 5786 5777 5773 5770 5768 5766 5765 5763 5762 5761 5760 5759 5758 5757 5756 5755 5754 5753 5752 5751 5750 5749 5749 5748 5747 5747 5747 5747 5747 5748 5748 5749 5748 5745 5742 5740 5739 5737 5736 5734 5733 5732
5798 5789 5781 5775 5771 5768 5766 5764 5762 5761 5760 5759 5758 5757 5756 5755 5754 5753 5752 5751 5750 5749 5748 5748 5747 5746 5746 5746 5747 5748 5748 5748 5749 5748 5745 5741 5740 5738 5737 5735 5734 5733 5732
5798 5793 5786 5781 5775 5770 5766 5764 5762 5761 5759 5758 5757 5756 5756 5755 5754 5752 5751 5750 5750 5749 5748 5747 5747 5746 5746 5746 5747 5748 5748 5749 5750 5748 5744 5741 5739 5738 5736 5735 5734 5733 5732
5794 5792 5789 5785 5779 5775 5770 5766 5763 5761 5760 5758 5757 5756 5756 5755 5754 5753 5752 5750 5749 5748 5748 5747 5747 5746 5746 5747 5748 5749 5749 5750 5750 5747 5743 5740 5739 5737 5736 5735 5734 5733 5731
5789 5790 5790 5786 5782 5778 5775 5769 5766 5764 5761 5760 5759 5758 5757 5756 5756 5754 5752 5750 5749 5749 5748 5748 5747 5747 5747 5749 5749 5750 5751 5752 5751 5747 5742 5740 5739 5738 5737 5735 5734 5733 5731
5792 5790 5789 5786 5782 5779 5775 5772 5769 5767 5764 5762 5761 5760 5759 5758 5756 5755 5753 5751 5750 5750 5750 5749 5749 5750 5751 5751 5752 5752 5753 5753 5751 5747 5742 5741 5740 5738 5737 5736 5734 5733 5731
5791 5789 5788 5784 5781 5777 5774 5772 5771 5769 5766 5764 5762 5761 5760 5759 5758 5757 5755 5754 5753 5753 5753 5752 5753 5753 5753 5753 5753 5754 5754 5753 5752 5747 5743 5742 5741 5739 5738 5736 5735 5733 5732
5790 5788 5786 5782 5778 5775 5773 5771 5771 5769 5767 5765 5763 5762 5761 5760 5760 5759 5758 5756 5756 5756 5755 5755 5755 5755 5755 5755 5755 5754 5754 5754 5752 5749 5745 5743 5741 5740 5739 5737 5736 5734 5732
5790 5787 5785 5781 5777 5773 5770 5769 5769 5768 5767 5765 5764 5763 5761 5760 5760 5759 5758 5758 5758 5758 5758 5757 5756 5756 5755 5755 5755 5755 5755 5754 5752 5750 5747 5744 5742 5741 5740 5738 5737 5735 5734
5791 5788 5784 5780 5777 5772 5770 5768 5768 5767 5767 5765 5764 5762 5761 5760 5759 5759 5759 5759 5759 5759 5759 5758 5758 5757 5757 5757 5756 5756 5756 5755 5754 5752 5750 5747 5744 5743 5741 5740 5738 5737 5735
5793 5788 5784 5783 5778 5773 5770 5768 5767 5767 5766 5765 5764 5762 5761 5760 5760 5759 5759 5759 5760 5759 5759 5759 5759 5757 5757 5756 5756 5757 5757 5756 5755 5754 5753 5751 5748 5746 5743 5742 5740 5738 5737
5794 5788 5784 5782 5777 5773 5770 5768 5766 5765 5765 5764 5764 5763 5762 5761 5760 5760 5759 5760 5760 5760 5760 5760 5759 5758 5756 5755 5756 5757 5757 5757 5757 5756 5755 5754 5752 5750 5747 5744 5742 5740 5738
5795 5789 5785 5781 5777 5774 5771 5767 5765 5764 5764 5764 5764 5763 5762 5762 5761 5760 5760 5760 5760 5760 5759 5759 5758 5758 5757 5756 5757 5757 5758 5758 5758 5758 5757 5756 5754 5752 5750 5747 5744 5742 5740
5795 5789 5785 5781 5777 5773 5769 5765 5762 5761 5762 5763 5764 5763 5762 5762 5762 5760 5760 5760 5760 5760 5759 5759 5758 5756 5755 5757 5753 5751 5755 5759 5759 5759 5758 5757 5756 5754 5752 5750 5747 5744 5742
5794 5789 5786 5781 5778 5774 5771 5768 5765 5764 5764 5764 5765 5764 5763 5763 5762 5762 5759 5759 5760 5759 5758 5758 5757 5754 5754 5757 5752 5745 5742 5746 5754 5760 5758 5757 5756 5755 5753 5751 5748 5745 5743
5795 5790 5788 5783 5779 5776 5773 5770 5767 5765 5764 5764 5763 5763 5763 5763 5763 5762 5761 5760 5760 5759 5757 5757 5756 5753 5751 5754 5755 5747 5739 5735 5743 5751 5755 5755 5754 5753 5752 5751 5748 5746 5743
5798 5794 5790 5784 5780 5777 5774 5770 5766 5761 5759 5761 5763 5764 5764 5763 5763 5762 5761 5760 5759 5759 5757 5757 5757 5755 5752 5749 5752 5753 5750 5747 5739 5738 5745 5750 5751 5749 5748 5748 5747 5744 5742
5802 5797 5791 5786 5781 5778 5775 5771 5767 5764 5763 5763 5764 5763 5763 5763 5763 5762 5762 5761 5759 5758 5757 5757 5757 5755 5754 5751 5750 5750 5749 5748 5747 5738 5734 5739 5743 5745 5745 5745 5742 5740 5738
5803 5798 5792 5785 5781 5778 5775 5772 5767 5764 5762 5761 5760 5760 5760 5762 5762 5762 5762 5760 5759 5758 5757 5756 5756 5755 5753 5752 5751 5750 5748 5744 5742 5740 5735 5735 5735 5739 5741 5740 5738 5736 5734